Tracking 19145 objects as of 25-Apr-2018
HD Live streaming from Space Station
objects crossing your sky now

FENGYUN 1C DEB

Track FENGYUN 1C DEB now!
10-day predictions


NORAD ID: 31539
Int'l Code: 1999-025BYE
Perigee: 564.1 km
Apogee: 592.6 km
Inclination: 99.0 °
Period: 96.1 minutes
Semi major axis: 6949 km
RCS: 0.0051 m2 (small)
Launch date: May 10, 1999
Source: People's Republic of China (PRC)
Launch site: Taiyaun Space Center, China (TSC)

Note: This is SATELLITE DEBRIS
aabbcc
Your satellite tracking list
Your tracking list is empty




NASA's NSSDC Master Catalog

Two Line Element Set (TLE):
1 31539U 99025BYE 18114.39332351 +.00012316 +00000-0 +10275-2 0  9990
2 31539 099.0465 095.1039 0020463 341.3616 018.6851 14.98605462577443
Source of the keplerian elements: AFSPC